This demonstration page uses our WeatherBlox Daily Observations layout. Learn more.

Left ArrowRight Arrow

Hourly Observations for November 8, 2021

Temp ( °F °C ) Dew Point ( °F °C ) Humidity (%) Winds ( mph kmh ) Pressure ( in mb ) Visibility ( mi km ) Precip ( " mm )
12:53 am 00:53 Clear 23 -5 16 -8.9 74 74 SW 13 20 30.14 1021 10 16 0.00 0.00
1:53 am 01:53 Clear 23 -5 16 -8.9 74 74 W 7 11 30.15 1021 10 16 0.00 0.00
2:53 am 02:53 Clear 32 0 19 -7.2 59 59 SW 14 22 30.13 1020 10 16 0.00 0.00
3:53 am 03:53 Clear 31 -0.6 18 -7.8 59 59 SW 14 22 30.12 1020 10 16 0.00 0.00
4:53 am 04:53 Clear 30 -1.1 18 -7.8 61 61 SW 16 26 30.14 1021 10 16 0.00 0.00
5:53 am 05:53 Clear 38 3.3 17 -8.3 43 43 SSW 18 30 30.14 1021 10 16 0.00 0.00
6:53 am 06:53 Clear 38 3.3 16 -8.9 41 41 SSW 21 33 30.14 1021 10 16 0.00 0.00
7:53 am 07:53 Sunny 39 3.9 17 -8.3 41 41 SSW 23 37 30.15 1021 10 16 0.00 0.00
8:53 am 08:53 Sunny 42 5.6 17 -8.3 36 36 SW 21 33 30.16 1022 10 16 0.00 0.00
9:53 am 09:53 Sunny 45 7.2 17 -8.3 33 33 SW 22 35 30.17 1022 10 16 0.00 0.00
10:53 am 10:53 Sunny 46 7.8 18 -7.8 32 32 SW 23 37 30.18 1022 10 16 0.00 0.00
11:53 am 11:53 Sunny 49 9.4 18 -7.8 29 29 WSW 20 31 30.18 1022 10 16 0.00 0.00
12:53 pm 12:53 Sunny 51 10.6 16 -8.9 25 25 WSW 22 35 30.16 1021 10 16 0.00 0.00
1:53 pm 13:53 Sunny 51 10.6 16 -8.9 25 25 W 17 28 30.17 1022 10 16 0.00 0.00
2:53 pm 14:53 Mostly Sunny 50 10 15 -9.4 25 25 WNW 15 24 30.16 1022 10 16 0.00 0.00
3:53 pm 15:53 Sunny 47 8.3 15 -9.4 28 28 W 9 15 30.18 1022 10 16 0.00 0.00
4:53 pm 16:53 Clear 35 1.7 17 -8.3 48 48 WSW 8 13 30.20 1023 10 16 0.00 0.00
5:53 pm 17:53 Clear 34 1.1 18 -7.8 52 52 SSW 10 17 30.21 1023 10 16 0.00 0.00
6:53 pm 18:53 Clear 33 0.6 17 -8.3 52 52 Calm 30.22 1023 10 16 0.00 0.00
7:53 pm 19:53 Clear 31 -0.6 17 -8.3 56 56 Calm 30.22 1024 10 16 0.00 0.00
8:53 pm 20:53 Clear 23 -5 16 -8.9 74 74 SSE 3 6 30.23 1024 10 16 0.00 0.00
9:53 pm 21:53 Clear 21 -6.1 16 -8.9 81 81 W 3 6 30.24 1024 10 16 0.00 0.00
10:53 pm 22:53 Clear 21 -6.1 16 -8.9 81 81 ENE 9 15 30.24 1024 10 16 0.00 0.00
11:53 pm 23:53 Clear 21 -6.1 16 -8.9 81 81 E 6 9 30.21 1023 10 16 0.00 0.00

Powered by AerisWeather